When you browse on this site, cookies collect data to enhance your experience and personalize the content and advertising you see.
Visit our Privacy Policy to learn more. By continuing to use the site, you agree to this use of cookies and data.
  • In Latvia
  • List of Countries
  • For 7 days
  • Water Temperature
  • Satellite Maps
  • Weather Map
  • Weather Widgets
  • user-avatar
    Login

    Hourly Weather Krasnoe

    Today, 23 May, Thursday

    Time Temperature Precipitation Wind Pressure Humidity
    00:00 +14°C° 0 mm 1 mps 736 mmHg 90%
    01:00 +14°C° 0 mm 1 mps 736 mmHg 91%
    02:00 +14°C° 0 mm 1 mps 736 mmHg 92%
    03:00 +14°C° 0 mm 1 mps 736 mmHg 92%
    04:00 +14°C° 0 mm 1 mps 736 mmHg 91%
    05:00 +14°C° 0 mm 1 mps 736 mmHg 91%
    06:00 +16°C° 0 mm 1 mps 736 mmHg 85%
    07:00 +18°C° 0 mm 2 mps 736 mmHg 79%
    08:00 +20°C° 0 mm 2 mps 736 mmHg 73%
    09:00 +21°C° 0.2 mm 2 mps 735 mmHg 69%
    10:00 +23°C° 0.2 mm 2 mps 735 mmHg 64%
    11:00 +24°C° 0.2 mm 3 mps 735 mmHg 60%
    12:00 +24°C° 0.5 mm 3 mps 735 mmHg 61%
    13:00 +24°C° 0.5 mm 3 mps 735 mmHg 62%
    14:00 +24°C° 0.5 mm 2 mps 735 mmHg 63%
    15:00 +23°C° 0.7 mm 2 mps 735 mmHg 69%
    16:00 +21°C° 0.7 mm 2 mps 735 mmHg 75%
    17:00 +21°C° 0.7 mm 2 mps 735 mmHg 81%
    18:00 +19°C° 0.1 mm 3 mps 736 mmHg 86%
    19:00 +17°C° 0.1 mm 3 mps 736 mmHg 91%
    20:00 +16°C° 0.1 mm 3 mps 736 mmHg 96%
    21:00 +13°C° 0 mm 3 mps 737 mmHg 95%
    22:00 +12°C° 0 mm 3 mps 737 mmHg 94%
    23:00 +11°C° 0 mm 3 mps 737 mmHg 93%

    Tomorrow, 24 May, Friday

    Time Temperature Precipitation Wind Pressure Humidity
    00:00 +10°C° 0 mm 3 mps 738 mmHg 93%
    01:00 +9°C° 0 mm 3 mps 738 mmHg 92%
    02:00 +9°C° 0 mm 3 mps 738 mmHg 92%
    03:00 +9°C° 0 mm 3 mps 739 mmHg 92%
    04:00 +8°C° 0 mm 3 mps 739 mmHg 92%
    05:00 +8°C° 0 mm 3 mps 739 mmHg 92%
    06:00 +9°C° 0 mm 3 mps 740 mmHg 88%
    07:00 +10°C° 0 mm 3 mps 740 mmHg 83%
    08:00 +11°C° 0 mm 3 mps 740 mmHg 79%
    09:00 +12°C° 0 mm 3 mps 740 mmHg 73%
    10:00 +14°C° 0 mm 3 mps 740 mmHg 67%
    11:00 +17°C° 0 mm 3 mps 740 mmHg 61%
    12:00 +17°C° 0 mm 3 mps 740 mmHg 61%
    13:00 +17°C° 0 mm 3 mps 740 mmHg 61%
    14:00 +17°C° 0 mm 3 mps 740 mmHg 61%
    15:00 +18°C° 0 mm 2 mps 740 mmHg 62%
    16:00 +18°C° 0 mm 2 mps 740 mmHg 64%
    17:00 +18°C° 0 mm 2 mps 740 mmHg 65%
    18:00 +17°C° 0 mm 2 mps 740 mmHg 69%
    19:00 +16°C° 0 mm 2 mps 740 mmHg 73%
    20:00 +15°C° 0 mm 2 mps 740 mmHg 78%
    21:00 +14°C° 0 mm 3 mps 740 mmHg 80%
    22:00 +14°C° 0 mm 3 mps 739 mmHg 81%
    23:00 +13°C° 0 mm 3 mps 739 mmHg 83%

    Day after tomorrow, 25 May, Saturday

    Time Temperature Precipitation Wind Pressure Humidity
    00:00 +13°C° 0 mm 3 mps 739 mmHg 86%
    01:00 +14°C° 0 mm 2 mps 739 mmHg 88%
    02:00 +13°C° 0 mm 2 mps 738 mmHg 91%
    03:00 +13°C° 0 mm 2 mps 738 mmHg 91%
    04:00 +14°C° 0 mm 2 mps 738 mmHg 92%
    05:00 +14°C° 0 mm 2 mps 738 mmHg 92%
    06:00 +14°C° 0 mm 2 mps 737 mmHg 90%
    07:00 +14°C° 0 mm 3 mps 737 mmHg 89%
    08:00 +14°C° 0 mm 3 mps 737 mmHg 88%
    09:00 +16°C° 0 mm 3 mps 737 mmHg 85%
    10:00 +17°C° 0 mm 3 mps 736 mmHg 83%
    11:00 +18°C° 0 mm 2 mps 736 mmHg 81%
    12:00 +18°C° 0.1 mm 3 mps 736 mmHg 80%
    13:00 +18°C° 0.1 mm 3 mps 735 mmHg 80%
    14:00 +18°C° 0.1 mm 3 mps 735 mmHg 79%
    15:00 +18°C° 0.2 mm 3 mps 734 mmHg 82%
    16:00 +18°C° 0.2 mm 3 mps 734 mmHg 84%
    17:00 +18°C° 0.2 mm 3 mps 733 mmHg 87%
    18:00 +17°C° 0.7 mm 3 mps 733 mmHg 89%
    19:00 +16°C° 0.7 mm 2 mps 733 mmHg 92%
    20:00 +16°C° 0.7 mm 2 mps 733 mmHg 94%
    21:00 +15°C° 0.2 mm 2 mps 732 mmHg 95%
    22:00 +15°C° 0.2 mm 2 mps 732 mmHg 96%
    23:00 +14°C° 0.2 mm 2 mps 732 mmHg 97%

    26 May, Sunday

    Time Temperature Precipitation Wind Pressure Humidity
    00:00 +13°C° 0 mm 2 mps 732 mmHg 97%
    01:00 +13°C° 0 mm 2 mps 732 mmHg 97%
    02:00 +12°C° 0 mm 2 mps 732 mmHg 97%
    03:00 +12°C° 0 mm 2 mps 732 mmHg 96%
    04:00 +10°C° 0 mm 2 mps 732 mmHg 95%
    05:00 +10°C° 0 mm 2 mps 733 mmHg 95%
    06:00 +12°C° 0 mm 2 mps 733 mmHg 87%
    07:00 +14°C° 0 mm 2 mps 733 mmHg 80%
    08:00 +15°C° 0 mm 2 mps 733 mmHg 73%
    09:00 +16°C° 0 mm 2 mps 733 mmHg 68%
    10:00 +17°C° 0 mm 3 mps 733 mmHg 62%
    11:00 +18°C° 0 mm 3 mps 733 mmHg 57%
    12:00 +18°C° 0 mm 3 mps 733 mmHg 56%
    13:00 +18°C° 0 mm 4 mps 733 mmHg 56%
    14:00 +18°C° 0 mm 4 mps 733 mmHg 56%
    15:00 +17°C° 0 mm 4 mps 733 mmHg 57%
    16:00 +17°C° 0 mm 3 mps 733 mmHg 58%
    17:00 +16°C° 0 mm 3 mps 733 mmHg 59%
    18:00 +15°C° 0 mm 2 mps 733 mmHg 63%
    19:00 +14°C° 0 mm 2 mps 732 mmHg 67%
    20:00 +13°C° 0 mm 1 mps 732 mmHg 70%
    21:00 +12°C° 0 mm 1 mps 732 mmHg 75%
    22:00 +11°C° 0 mm 1 mps 732 mmHg 79%
    23:00 +10°C° 0 mm 1 mps 731 mmHg 84%

    27 May, Monday

    Time Temperature Precipitation Wind Pressure Humidity
    00:00 +9°C° 0.9 mm 2 mps 731 mmHg 88%
    01:00 +9°C° 0.9 mm 2 mps 731 mmHg 92%
    02:00 +9°C° 0.9 mm 2 mps 731 mmHg 95%
    03:00 +9°C° 0.6 mm 3 mps 731 mmHg 94%
    04:00 +8°C° 0.6 mm 4 mps 731 mmHg 93%
    05:00 +8°C° 0.6 mm 4 mps 731 mmHg 92%
    06:00 +8°C° 0 mm 5 mps 731 mmHg 89%
    07:00 +8°C° 0 mm 5 mps 731 mmHg 87%
    08:00 +8°C° 0 mm 5 mps 731 mmHg 84%
    09:00 +9°C° 0.2 mm 5 mps 732 mmHg 81%
    10:00 +9°C° 0.2 mm 5 mps 732 mmHg 77%
    11:00 +9°C° 0.2 mm 6 mps 733 mmHg 74%
    12:00 +9°C° 0.3 mm 5 mps 733 mmHg 76%
    13:00 +9°C° 0.3 mm 5 mps 734 mmHg 78%
    14:00 +10°C° 0.3 mm 4 mps 734 mmHg 81%
    15:00 +11°C° 0 mm 4 mps 735 mmHg 78%
    16:00 +11°C° 0 mm 4 mps 736 mmHg 76%
    17:00 +12°C° 0 mm 4 mps 736 mmHg 74%
    18:00 +11°C° 0 mm 4 mps 737 mmHg 77%
    19:00 +11°C° 0 mm 3 mps 737 mmHg 80%
    20:00 +10°C° 0 mm 3 mps 737 mmHg 83%
    21:00 +10°C° 0 mm 3 mps 738 mmHg 83%
    22:00 +10°C° 0 mm 3 mps 738 mmHg 83%
    23:00 +10°C° 0 mm 3 mps 739 mmHg 83%

    28 May, Tuesday

    Time Temperature Precipitation Wind Pressure Humidity
    00:00 +9°C° 0 mm 3 mps 739 mmHg 86%
    01:00 +9°C° 0 mm 3 mps 740 mmHg 89%
    02:00 +8°C° 0 mm 3 mps 740 mmHg 93%
    03:00 +9°C° 0 mm 3 mps 740 mmHg 91%
    04:00 +9°C° 0 mm 3 mps 740 mmHg 89%
    05:00 +10°C° 0 mm 3 mps 741 mmHg 87%
    06:00 +11°C° 0.1 mm 3 mps 741 mmHg 84%
    07:00 +12°C° 0.1 mm 3 mps 741 mmHg 81%
    08:00 +14°C° 0.1 mm 3 mps 741 mmHg 77%
    09:00 +16°C° 0.1 mm 3 mps 741 mmHg 76%
    10:00 +16°C° 0.1 mm 3 mps 741 mmHg 75%
    11:00 +17°C° 0.1 mm 3 mps 741 mmHg 75%
    12:00 +18°C° 0.1 mm 3 mps 741 mmHg 72%
    13:00 +19°C° 0.1 mm 3 mps 741 mmHg 70%
    14:00 +20°C° 0.1 mm 4 mps 741 mmHg 67%
    15:00 +20°C° 0.2 mm 3 mps 741 mmHg 68%
    16:00 +20°C° 0.2 mm 3 mps 741 mmHg 69%
    17:00 +21°C° 0.2 mm 2 mps 741 mmHg 70%
    18:00 +19°C° 0 mm 2 mps 741 mmHg 77%
    19:00 +18°C° 0 mm 2 mps 741 mmHg 83%
    20:00 +16°C° 0 mm 1 mps 742 mmHg 89%
    21:00 +16°C° 0 mm 1 mps 742 mmHg 90%
    22:00 +15°C° 0 mm 2 mps 742 mmHg 91%
    23:00 +15°C° 0 mm 2 mps 742 mmHg 92%
    Show more